Terminal Aerodrome Forecast
Issued by NWS

Home | Current Version | Previous Version | Graphics & Text | Print | Product List | Glossary On
Versions: 1 2 3 4 5 6 7 8 9 10 11 12 13 14 15 16 17 18 19 20 21 22 23 24 25 26 27 28 29 30 31 32
000
FTUS45 KGGW 280200 AAA
TAFOLF
TAF AMD
KOLF 280202Z 2802/2824 VRB04KT P6SM SCT030 OVC080
     FM280500 09005KT P6SM SCT015 OVC030
     FM281400 05012KT P6SM VCSH SCT015 BKN030
     FM281900 05010KT P6SM SCT060 BKN200=

USA.gov is the U.S. government's official web portal to all federal, state and local government web resources and services.